Tracking 25620 objects as of 18-May-2022
HD Live streaming from Space Station
objects crossing your sky now

COSMOS 2251 DEB

Track COSMOS 2251 DEB now!
10-day predictions


NORAD ID: 37521
Int'l Code: 1993-036BNA
Perigee: 535.1 km
Apogee: 593.7 km
Inclination: 74.0 °
Period: 95.8 minutes
Semi major axis: 6935 km
RCS: 0.0084 m2 (small)
Launch date: June 16, 1993
Source: Commonwealth of Independent States (former USSR) (CIS)
Launch site: PLESETSK MISSILE AND SPACE COMPLEX (PKMTR)

Note: This is SATELLITE DEBRIS
aabbcc
Your satellite tracking list
Your tracking list is empty




NASA's NSSDC Master Catalog

Two Line Element Set (TLE):
1 37521U 93036BNA 22136.65475900  .00038316  00000-0  27710-2 0  9999
2 37521  74.0451 252.0497 0042224 275.3343 144.2541 15.03127147683796
Source of the keplerian elements: AFSPC